Weather History for KBML - September, 2011

Change the Weather History Date:

Thursday, September 8, 2011

  Actual Average Record
Temperature  
Mean Temperature 64 °F -  
Max Temperature 72 °F 71 °F 88 °F (2001)
Min Temperature 55 °F 43 °F 35 °F (2000)
Degree Days  
Heating Degree Days 2    
Growing Degree Days 14 (Base 50)    
Moisture  
Dew Point 56 °F    
Average Humidity 84    
Maximum Humidity 94    
Minimum Humidity 66    
Precipitation  
Precipitation 0.05 in - - ()
Sea Level Pressure  
Sea Level Pressure 30.11 in    
Wind  
Wind Speed 1 mph (NW)    
Max Wind Speed 6 mph    
Max Gust Speed -    
Visibility 10 miles    
Events Rain    
Averages and records for this station are not official NWS values.
T = Trace of Precipitation, MM = Missing Value Source: NWS Daily Summary

Daily Weather History Graph

Daily Weather History Graph

Search for Another Location

Airport or City:

Trip Planner

Search our weather history database for the weather conditions in past years. The results will help you decide how hot, cold, wet, or windy it might be!

Date:

Astronomy

Sep. 08, 2011 Rise Set
Actual Time 6:15 AM EDT 7:09 PM EDT
Civil Twilight 5:45 AM EDT 7:38 PM EDT
Nautical Twilight 5:10 AM EDT 8:13 PM EDT
Astronomical Twilight 4:33 AM EDT 8:50 PM EDT
Moon 5:07 PM EDT (9/8) 2:22 AM EDT (9/8)
Length of Visible Light 13h 53m
Length of Day
12h 53m
Waxing Gibbous, 87% of the Moon is Illuminated
Sep 8
Waxing Gibbous
Sep 12
Full
Sep 20
Last Quarter
Sep 27
New
Oct 3
First Quarter

Hourly Weather History & Observations

Time (EDT) Temp. Dew Point Humidity Pressure Visibility Wind Dir Wind Speed Gust Speed Precip Events Conditions
1:52 AM 55.9 °F 53.1 °F 90% 30.17 in 10.0 mi North 3.5 mph - N/A   Overcast
2:25 AM 55.4 °F 53.6 °F 94% 30.16 in 7.0 mi Calm Calm - 0.01 in Rain Rain
2:52 AM 55.0 °F 53.1 °F 93% 30.16 in 10.0 mi NW 3.5 mph - 0.01 in   Overcast
3:29 AM 55.4 °F 53.6 °F 94% 30.14 in 8.0 mi Calm Calm - 0.01 in Rain Light Rain
3:52 AM 55.0 °F 53.1 °F 93% 30.14 in 10.0 mi Calm Calm - 0.02 in Rain Light Rain
4:52 AM 55.0 °F 53.1 °F 93% 30.13 in 10.0 mi Calm Calm - 0.02 in   Overcast
5:18 AM 55.4 °F 53.6 °F 94% 30.14 in 10.0 mi Calm Calm - N/A   Overcast
5:28 AM 55.4 °F 53.6 °F 94% 30.15 in 10.0 mi Calm Calm - N/A   Overcast
5:37 AM 55.4 °F 53.6 °F 94% 30.15 in 10.0 mi Calm Calm - N/A   Overcast
5:49 AM 55.4 °F 53.6 °F 94% 30.15 in 10.0 mi North 5.8 mph - N/A   Overcast
5:52 AM 55.0 °F 53.1 °F 93% 30.16 in 10.0 mi North 4.6 mph - N/A   Overcast
6:52 AM 55.0 °F 53.1 °F 93% 30.16 in 10.0 mi Calm Calm - N/A   Overcast
7:26 AM 55.4 °F 53.6 °F 94% 30.15 in 10.0 mi Calm Calm - N/A   Overcast
7:34 AM 55.4 °F 53.6 °F 94% 30.15 in 10.0 mi Calm Calm - N/A   Overcast
7:52 AM 55.9 °F 54.0 °F 93% 30.16 in 10.0 mi Calm Calm - N/A   Overcast
8:28 AM 57.2 °F 53.6 °F 88% 30.15 in 10.0 mi Calm Calm - N/A   Overcast
8:52 AM 57.9 °F 54.0 °F 87% 30.17 in 10.0 mi Calm Calm - N/A   Overcast
9:52 AM 60.1 °F 55.0 °F 83% 30.17 in 10.0 mi Calm Calm - N/A   Overcast
10:20 AM 60.8 °F 55.4 °F 82% 30.15 in 10.0 mi Calm Calm - N/A   Overcast
10:52 AM 62.1 °F 55.9 °F 80% 30.14 in 10.0 mi South 3.5 mph - N/A   Overcast
11:27 AM 62.6 °F 55.4 °F 77% 30.13 in 10.0 mi Calm Calm - N/A   Overcast
11:39 AM 62.6 °F 55.4 °F 77% 30.13 in 10.0 mi Calm Calm - N/A   Overcast
11:52 AM 64.0 °F 55.9 °F 75% 30.13 in 10.0 mi Calm Calm - N/A   Overcast
12:52 PM 66.9 °F 57.9 °F 73% 30.11 in 10.0 mi SW 4.6 mph - N/A   Overcast
1:01 PM 68.0 °F 57.2 °F 68% 30.10 in 10.0 mi Calm Calm - N/A   Overcast
1:52 PM 69.1 °F 57.9 °F 68% 30.09 in 10.0 mi Calm Calm - N/A   Overcast
2:52 PM 70.0 °F 59.0 °F 68% 30.07 in 10.0 mi Calm Calm - N/A   Overcast
3:52 PM 70.0 °F 59.0 °F 68% 30.06 in 10.0 mi Calm Calm - N/A   Overcast
4:16 PM 71.6 °F 60.8 °F 69% 30.05 in 10.0 mi Calm Calm - N/A   Scattered Clouds
4:52 PM 71.1 °F 59.0 °F 66% 30.04 in 10.0 mi Calm Calm - N/A   Clear
5:27 PM 71.6 °F 60.8 °F 69% 30.03 in 10.0 mi Calm Calm - N/A   Mostly Cloudy
5:52 PM 72.0 °F 60.1 °F 66% 30.02 in 10.0 mi Variable 4.6 mph - N/A   Overcast
6:52 PM 68.0 °F 61.0 °F 78% 30.02 in 10.0 mi Calm Calm - N/A   Overcast
8:52 PM 64.0 °F 61.0 °F 90% 30.03 in 10.0 mi Calm Calm - N/A   Overcast
9:52 PM 64.0 °F 61.0 °F 90% 30.01 in 10.0 mi Calm Calm - N/A   Overcast
10:52 PM 63.0 °F 61.0 °F 93% 30.01 in 10.0 mi Calm Calm - N/A   Overcast
11:52 PM 63.0 °F 61.0 °F 93% 30.00 in 10.0 mi Calm Calm - N/A   Overcast